Location: *
(43.2048°N, 0.1612°E)
Time: 17:54:28
(UTC+00:00)

ATLAS 3B R/B - Pass Details

Date: 30 September 2023
Orbit: 954 x 1241 km, 63.8° (Epoch: 01 December)

Event Time Altitude Azimuth Distance (km) Brightness Sun altitude
Rises 04:18:00 0° 319° (NW) 4,151 5.5 -18.4°
Reaches altitude 10° 04:20:53 10° 313° (NW) 3,200 4.9 -17.9°
Maximum altitude 04:28:06 43° 246° (WSW) 1,672 3.3 -16.6°
Drops below altitude 10° 04:35:15 10° 178° (S) 3,172 5.1 -15.3°
Sets 04:38:07 0° 171° (S) 4,112 5.7 -14.8°
